Cloud_Cover
99 100 100 100 100 100 100 94 8 5 2 5 5 14 100 100 100 71 80 36 66 100 100 100 71 22 39 47 8 23 0 0 4 5 100 96 66 98 100 100 100 99 100 100 84 100 100
100 100 100 100 100 100 100 59 21 5 5 5 5 20 100 100 100 81 100 100 100 99 100 100 50 5 100 1 0 3 59 27 26 6 100 100 100 12 90 100 98 100 100 100 100 100 100
100 100 100 100 100 100 100 100 14 13 5 10 5 9 100 100 100 100 100 98 98 72 100 96 2 100 5 0 38 1 100 100 61 100 75 75 100 64 100 100 100 100 100 100 100 100 100
100 100 100 100 100 100 100 84 22 6 5 5 5 7 100 93 100 100 99 100 78 95 62 1 59 37 0 10 100 5 37 21 96 22 98 97 99 81 100 100 100 100 100 100 100 100 100
100 100 100 100 100 100 100 47 21 5 5 27 38 5 79 97 100 100 95 99 70 40 6 18 16 1 1 61 68 2 5 100 98 52 71 91 100 100 100 100 100 100 100 100 100 100 91
30 97 100 100 100 100 100 76 98 99 96 99 51 84 5 47 96 100 89 62 6 3 4 2 3 1 2 93 23 2 1 100 84 76 100 99 100 100 100 100 100 100 100 100 100 91 67
84 78 100 100 100 100 100 100 100 100 100 33 100 14 5 34 100 100 32 0 2 0 0 0 0 0 4 57 100 51 68 100 100 92 100 100 100 100 100 100 100 100 100 100 98 100 100
98 96 99 100 100 100 100 100 100 100 100 99 35 19 54 44 100 100 14 4 4 3 0 0 0 0 4 50 61 100 96 99 100 100 100 100 100 100 100 100 100 100 100 98 100 100 100
100 100 62 100 92 100 100 99 99 94 7 13 28 17 96 100 100 82 3 5 2 4 0 0 0 1 21 3 51 54 15 71 100 100 100 100 100 100 100 100 100 100 100 100 100 100 79
56 100 100 100 100 100 100 100 100 36 94 15 10 10 100 100 100 100 6 5 5 0 1 0 0 1 5 5 5 99 26 49 100 100 100 100 100 100 100 100 95 100 100 100 100 74 96
0 98 73 88 79 100 100 100 100 41 90 76 34 100 100 100 100 100 91 5 5 5 33 63 4 0 5 3 35 93 60 89 100 100 100 99 100 100 100 100 100 100 100 100 100 6 100
5 86 30 0 1 5 14 98 100 95 100 100 100 100 100 100 100 100 100 12 8 13 44 4 0 0 5 5 3 4 45 63 95 78 100 100 90 94 99 100 100 100 100 100 47 98 66
6 13 90 36 2 1 1 7 100 100 100 100 100 100 100 100 100 100 100 81 16 5 2 1 0 2 97 5 22 99 19 11 100 86 98 100 100 100 100 99 100 100 100 68 83 99 12
98 89 62 50 0 0 2 25 100 100 89 100 100 100 100 100 100 100 96 100 74 3 24 0 0 0 5 5 1 11 90 96 100 100 100 100 100 69 78 98 95 13 99 16 100 94 89
100 100 78 5 5 0 3 41 100 100 99 100 100 100 100 100 100 100 25 67 6 5 5 0 0 0 5 3 5 5 5 50 11 8 100 77 100 100 89 70 51 63 5 6 29 45 1
100 100 100 52 4 3 4 43 100 100 100 65 100 100 100 100 100 86 95 100 5 3 0 0 0 0 5 0 0 3 5 43 5 5 5 38 91 8 52 74 10 5 5 3 0 0 3
100 100 100 100 77 22 4 90 100 100 84 5 100 100 99 100 100 49 93 100 19 0 0 0 0 0 26 5 0 5 66 2 0 3 5 24 27 19 6 5 9 3 0 0 1 13 5
100 100 100 100 100 96 5 100 100 100 82 10 73 100 99 100 53 94 97 100 8 1 0 0 0 0 3 5 5 5 27 5 13 18 5 6 2 3 1 1 0 0 5 5 0 0 0
95 100 100 100 100 100 100 100 100 100 100 100 100 100 100 100 77 100 100 96 3 5 0 0 0 0 5 7 5 16 5 5 2 0 0 0 0 5 5 0 0 1 0 0 0 0 4
100 82 100 100 100 100 72 90 100 100 99 98 100 100 100 100 100 100 100 12 4 3 4 0 3 3 60 49 4 5 5 0 0 0 0 0 0 1 5 88 5 5 5 5 5 5 5
100 100 100 96 100 100 100 100 100 100 40 35 72 100 100 100 100 96 25 5 0 1 5 0 2 48 60 8 5 5 5 0 0 0 0 0 0 5 5 1 3 11 40 69 5 5 5
100 100 100 14 100 100 100 100 100 100 88 88 35 50 96 80 5 99 14 3 5 5 5 1 7 93 31 5 3 8 2 5 1 3 2 0 5 3 0 3 14 77 65 2 3 5 5
98 100 100 91 76 100 100 100 100 98 10 96 72 99 100 98 6 66 8 5 5 32 4 5 62 100 20 5 5 5 5 4 6 5 5 5 3 5 5 5 5 79 5 5 0 0 4
5 98 100 10 5 100 100 100 100 100 5 5 99 100 99 38 34 10 6 9 5 64 6 19 74 89 26 5 5 5 5 5 5 5 5 3 2 5 7 4 58 8 0 4 4 2 5
100 99 58 6 62 27 100 100 100 100 88 26 100 100 100 99 51 14 5 91 29 21 90 6 72 41 23 5 5 5 5 6 5 2 1 0 4 5 20 4 5 5 30 5 5 4 11
65 96 91 5 32 100 100 100 100 99 100 98 100 99 98 80 67 90 41 68 20 24 5 27 99 97 37 5 5 5 5 5 5 5 5 5 5 5 5 57 63 9 5 5 5 5 37
57 71 8 90 100 100 100 100 100 88 100 100 100 100 100 57 100 96 71 59 38 40 23 72 80 77 48 20 91 5 5 5 5 5 63 5 33 38 5 35 8 56 25 90 57 10 5
7 48 93 100 100 100 100 100 100 94 100 100 100 100 100 18 100 43 40 99 10 44 98 95 48 86 35 29 44 5 31 5 5 5 17 37 47 28 18 65 73 58 76 56 9 5 12
100 100 100 100 100 100 100 100 100 100 100 14 100 100 100 5 40 64 100 67 34 36 59 22 30 44 8 8 47 5 90 85 24 66 62 32 7 14 8 8 11 6 5 5 5 5 44